Total_Precipitation_Accumulation
0.99 1.15 1.71 2.28 2.47 1.85 1.45 1.03 0.66 0.58 0.57 0.38 0.25 0.23 0.35 0.63 0.94 1.17 0.93 0.75 0.53 0.45 0.38 0.52 0.76 0.73 0.65 0.67 0.74 0.83 0.84 0.93 0.81 0.72 0.65 0.55 0.48 0.48 0.48 0.40 0.39 0.42 0.36 0.32 0.38 0.48 0.50 0.53 0.54
0.97 1.73 2.40 2.94 2.41 1.57 1.37 0.99 0.77 0.62 0.42 0.32 0.22 0.20 0.26 0.24 0.22 0.44 0.91 0.97 0.54 0.46 0.42 0.55 0.78 0.75 0.75 0.78 0.80 0.85 0.89 0.98 0.89 0.76 0.64 0.56 0.53 0.51 0.52 0.62 0.67 0.54 0.39 0.36 0.39 0.53 0.56 0.53 0.57
1.18 2.25 3.12 2.85 1.85 1.41 1.42 1.00 0.72 0.49 0.33 0.29 0.23 0.18 0.25 0.29 0.31 0.62 0.99 0.82 0.57 0.47 0.50 0.72 0.91 0.81 0.77 0.82 0.92 0.94 0.99 1.01 0.91 0.73 0.56 0.55 0.60 0.68 0.79 0.83 0.74 0.55 0.45 0.44 0.47 0.55 0.59 0.53 0.49
1.53 2.56 2.67 2.05 1.66 1.30 1.12 0.85 0.56 0.52 0.35 0.19 0.17 0.23 0.23 0.28 0.37 0.66 0.76 0.69 0.61 0.50 0.44 0.58 0.81 0.80 0.81 0.86 0.97 0.94 0.96 1.02 0.97 0.78 0.63 0.59 0.62 0.66 0.74 0.81 0.72 0.57 0.49 0.49 0.54 0.59 0.61 0.57 0.52
1.88 2.36 2.28 1.84 1.53 1.14 0.81 0.65 0.49 0.49 0.36 0.19 0.14 0.31 0.45 0.48 0.43 0.57 0.74 0.75 0.60 0.51 0.44 0.47 0.66 0.67 0.71 0.85 0.98 0.98 1.00 1.03 0.99 0.79 0.70 0.71 0.68 0.66 0.73 0.75 0.71 0.58 0.52 0.52 0.58 0.62 0.66 0.62 0.57
2.12 2.11 2.20 2.02 1.66 1.25 0.87 0.62 0.45 0.43 0.32 0.21 0.21 0.37 0.51 0.59 0.55 0.60 0.62 0.66 0.63 0.61 0.51 0.45 0.61 0.67 0.67 0.76 0.84 0.90 0.96 1.01 0.96 0.77 0.71 0.71 0.71 0.68 0.69 0.73 0.73 0.64 0.64 0.64 0.64 0.62 0.65 0.67 0.62
2.02 1.95 1.90 1.69 1.67 1.57 1.01 0.62 0.52 0.45 0.40 0.31 0.27 0.44 0.52 0.63 0.50 0.61 0.65 0.64 0.70 0.68 0.63 0.55 0.56 0.62 0.73 0.82 0.87 0.89 0.93 0.96 0.99 0.87 0.80 0.78 0.71 0.61 0.59 0.61 0.64 0.66 0.73 0.71 0.65 0.62 0.60 0.62 0.63
1.58 1.56 1.43 1.44 1.53 1.50 0.86 0.48 0.38 0.34 0.31 0.21 0.23 0.42 0.51 0.54 0.48 0.57 0.64 0.64 0.64 0.66 0.65 0.60 0.61 0.69 0.69 0.75 0.94 1.01 1.04 1.07 1.10 0.97 0.85 0.81 0.68 0.58 0.58 0.53 0.56 0.64 0.77 0.83 0.77 0.70 0.66 0.65 0.68
1.47 1.57 1.59 1.67 1.46 1.17 0.64 0.45 0.34 0.25 0.24 0.21 0.19 0.26 0.32 0.37 0.47 0.55 0.65 0.65 0.65 0.61 0.60 0.58 0.63 0.74 0.80 0.77 0.87 1.14 1.17 1.21 1.18 1.04 0.94 0.83 0.64 0.56 0.58 0.54 0.70 0.72 0.76 0.84 0.87 0.86 0.79 0.73 0.68
1.58 1.62 1.64 1.38 0.94 0.80 0.60 0.48 0.37 0.27 0.28 0.25 0.22 0.28 0.35 0.43 0.53 0.58 0.62 0.63 0.64 0.65 0.60 0.56 0.56 0.61 0.70 0.75 0.87 1.03 1.01 1.02 1.01 1.16 1.07 0.94 0.89 0.76 0.49 0.55 0.76 0.89 0.92 0.88 0.85 0.93 0.81 0.65 0.50
1.26 1.25 0.97 0.94 0.70 0.55 0.52 0.42 0.35 0.37 0.40 0.27 0.27 0.33 0.40 0.49 0.55 0.59 0.62 0.60 0.62 0.59 0.55 0.49 0.46 0.45 0.51 0.64 0.81 0.91 1.01 1.11 1.07 1.03 1.04 1.01 0.89 0.70 0.57 0.61 0.63 0.69 0.76 0.69 0.72 0.71 0.56 0.48 0.49
1.09 0.90 0.69 0.67 0.57 0.50 0.47 0.40 0.32 0.32 0.35 0.26 0.25 0.33 0.41 0.46 0.52 0.55 0.57 0.56 0.51 0.51 0.53 0.47 0.39 0.38 0.38 0.46 0.55 0.66 0.80 0.92 0.96 0.81 0.77 0.85 0.87 0.76 0.63 0.63 0.62 0.62 0.67 0.75 0.78 0.77 0.66 0.58 0.56
1.21 0.94 0.72 0.63 0.58 0.52 0.44 0.40 0.32 0.28 0.28 0.27 0.30 0.40 0.42 0.46 0.53 0.57 0.48 0.45 0.43 0.47 0.53 0.50 0.42 0.40 0.38 0.41 0.43 0.44 0.63 0.80 0.91 0.92 0.80 0.77 0.79 0.77 0.71 0.59 0.62 0.57 0.60 0.66 0.70 0.72 0.72 0.74 0.72
1.03 0.88 0.79 0.70 0.59 0.44 0.41 0.36 0.30 0.30 0.29 0.25 0.26 0.34 0.38 0.44 0.49 0.51 0.47 0.44 0.42 0.45 0.53 0.54 0.52 0.51 0.46 0.40 0.40 0.43 0.51 0.63 0.72 0.87 0.88 0.82 0.75 0.71 0.74 0.69 0.70 0.71 0.69 0.69 0.68 0.67 0.76 0.79 0.76
0.74 0.84 0.81 0.68 0.56 0.45 0.42 0.44 0.34 0.36 0.34 0.29 0.27 0.29 0.35 0.39 0.41 0.41 0.41 0.40 0.42 0.43 0.46 0.46 0.47 0.54 0.54 0.52 0.51 0.51 0.59 0.62 0.69 0.76 0.77 0.84 0.74 0.68 0.73 0.76 0.77 0.79 0.79 0.79 0.80 0.80 0.85 0.81 0.80
0.77 0.95 1.04 0.75 0.61 0.57 0.57 0.53 0.36 0.39 0.36 0.34 0.32 0.32 0.32 0.36 0.38 0.37 0.37 0.36 0.39 0.38 0.38 0.43 0.42 0.49 0.57 0.63 0.66 0.70 0.73 0.77 0.84 0.81 0.77 0.77 0.73 0.70 0.79 0.81 0.84 0.91 0.83 0.80 0.87 0.92 0.96 0.91 0.90
0.98 0.93 0.84 0.73 0.56 0.54 0.55 0.47 0.36 0.36 0.33 0.33 0.30 0.31 0.28 0.30 0.34 0.37 0.36 0.34 0.35 0.36 0.37 0.41 0.45 0.51 0.57 0.63 0.73 0.83 0.91 0.99 1.13 1.10 1.05 0.99 0.87 0.88 0.95 0.99 1.02 1.05 1.07 0.99 0.88 0.90 0.96 1.03 1.02
0.96 0.63 0.51 0.48 0.48 0.43 0.45 0.38 0.34 0.34 0.26 0.26 0.27 0.26 0.23 0.25 0.29 0.34 0.36 0.35 0.36 0.35 0.37 0.41 0.48 0.57 0.68 0.84 1.06 1.28 1.36 1.53 1.75 1.69 1.54 1.36 1.19 1.16 1.26 1.24 1.19 1.26 1.34 1.35 1.14 1.17 1.12 1.05 1.10
0.60 0.46 0.39 0.37 0.36 0.35 0.31 0.27 0.22 0.23 0.19 0.18 0.19 0.19 0.19 0.16 0.19 0.24 0.27 0.28 0.26 0.26 0.29 0.36 0.41 0.51 0.63 0.86 1.19 1.62 1.84 1.97 1.99 2.01 1.90 1.70 1.48 1.49 1.65 1.61 1.59 1.60 1.57 1.53 1.47 1.59 1.52 1.25 1.16
0.48 0.43 0.37 0.33 0.30 0.28 0.20 0.16 0.14 0.12 0.10 0.12 0.12 0.14 0.17 0.16 0.14 0.13 0.16 0.17 0.16 0.15 0.18 0.27 0.34 0.42 0.57 0.85 1.17 1.52 1.88 1.97 2.00 2.01 1.97 1.83 1.71 1.72 1.75 1.95 2.05 2.02 2.10 2.08 1.89 2.02 2.02 1.67 1.41
0.41 0.43 0.39 0.35 0.33 0.25 0.19 0.16 0.12 0.08 0.08 0.09 0.10 0.11 0.15 0.15 0.14 0.12 0.10 0.11 0.11 0.12 0.13 0.19 0.24 0.39 0.67 1.01 1.33 1.53 1.82 1.95 2.02 1.98 1.99 2.01 1.97 1.87 1.89 2.00 2.17 2.18 2.25 2.32 2.39 2.33 2.40 2.17 1.80
0.39 0.30 0.26 0.24 0.27 0.23 0.17 0.21 0.15 0.11 0.13 0.14 0.15 0.15 0.18 0.20 0.17 0.13 0.11 0.08 0.09 0.10 0.11 0.14 0.20 0.40 0.74 1.08 1.34 1.59 1.94 2.05 2.03 2.07 2.06 2.08 2.10 2.06 2.13 2.15 2.25 2.27 2.28 2.37 2.48 2.43 2.54 2.58 2.20
0.30 0.21 0.18 0.16 0.18 0.16 0.11 0.15 0.15 0.13 0.18 0.23 0.24 0.24 0.24 0.22 0.17 0.14 0.12 0.10 0.11 0.11 0.14 0.20 0.34 0.53 0.78 0.99 1.24 1.60 1.86 1.99 2.14 2.09 2.07 2.08 2.15 2.17 2.20 2.27 2.42 2.40 2.37 2.34 2.56 2.61 2.69 2.61 2.52
0.18 0.16 0.15 0.15 0.16 0.18 0.09 0.16 0.24 0.22 0.21 0.22 0.23 0.23 0.23 0.22 0.18 0.18 0.16 0.16 0.16 0.19 0.25 0.33 0.49 0.64 0.85 1.02 1.22 1.41 1.67 1.82 1.97 2.07 2.02 2.03 2.10 2.20 2.10 2.02 2.16 2.22 2.25 2.24 2.41 2.58 2.71 2.69 2.71
0.11 0.18 0.27 0.28 0.32 0.25 0.11 0.21 0.35 0.26 0.20 0.19 0.20 0.22 0.24 0.25 0.27 0.31 0.31 0.35 0.41 0.45 0.48 0.56 0.66 0.76 0.87 0.97 1.07 1.13 1.31 1.48 1.54 1.72 1.81 1.94 1.96 2.02 2.05 1.95 1.95 1.98 1.93 1.97 2.08 2.14 2.22 2.36 2.51
0.08 0.14 0.29 0.35 0.30 0.24 0.20 0.38 0.42 0.29 0.23 0.23 0.23 0.26 0.29 0.37 0.43 0.53 0.61 0.70 0.76 0.76 0.74 0.81 0.86 0.85 0.83 0.88 0.94 0.97 1.04 1.13 1.22 1.27 1.32 1.51 1.68 1.72 1.80 1.80 1.75 1.79 1.83 1.84 1.91 1.92 1.92 1.95 2.02
0.07 0.09 0.14 0.22 0.19 0.19 0.23 0.43 0.45 0.32 0.31 0.31 0.32 0.34 0.42 0.61 0.71 0.82 0.91 0.92 0.93 0.91 0.86 0.87 0.89 0.86 0.84 0.84 0.84 0.80 0.80 0.87 0.98 1.01 1.09 1.16 1.26 1.28 1.34 1.44 1.51 1.61 1.66 1.72 1.85 1.91 1.90 1.86 1.83
0.06 0.10 0.18 0.32 0.41 0.37 0.35 0.49 0.52 0.44 0.40 0.37 0.41 0.50 0.66 0.93 1.07 1.20 1.27 1.17 1.10 1.09 1.13 1.02 0.93 0.86 0.82 0.82 0.82 0.76 0.73 0.78 0.82 0.83 0.90 0.89 0.91 0.94 1.00 1.11 1.28 1.50 1.62 1.66 1.73 1.78 1.86 1.89 1.84
0.11 0.17 0.26 0.42 0.49 0.62 0.73 0.85 0.69 0.59 0.59 0.67 0.76 0.83 1.02 1.29 1.44 1.53 1.54 1.43 1.23 1.10 1.10 1.04 0.93 0.82 0.72 0.71 0.76 0.76 0.71 0.73 0.78 0.77 0.73 0.67 0.70 0.78 0.89 0.95 1.09 1.24 1.43 1.61 1.75 1.77 1.76 1.80 1.78
0.23 0.37 0.51 0.80 0.77 0.69 0.89 1.09 0.84 0.69 0.71 0.74 0.81 0.92 1.11 1.24 1.31 1.35 1.30 1.29 1.18 1.09 1.00 0.96 0.85 0.71 0.65 0.70 0.73 0.75 0.67 0.62 0.65 0.66 0.68 0.59 0.56 0.62 0.71 0.84 1.05 1.16 1.25 1.30 1.38 1.46 1.49 1.51 1.56